Home   Weather   Tianjin   Past weeks
Flag for China

Past Weather in Tianjin, Tianjin Municipality, China — Yesterday and Last 2 Weeks

Now
52 °F

Clear.


Feels Like: 51 °F
Forecast: 59 / 45 °F
Wind: 3 mph from West

Location: Tianjin / Zhangguizhu

Current Time: Oct 15, 2019 at 9:29:00 am

Latest Report: Oct 15, 2019 at 8:30 am


Visibility: 5 mi

Pressure: 30.60 "Hg

Humidity: 54%

Dew Point: 36 °F

Location of TianjinLocation

Past Weather in Tianjin — Graph

°F

Tianjin Temperature Yesterday

Maximum temperature yesterday: 59 °F (at 2:00 pm)
Minimum temperature yesterday: 39 °F (at 6:30 am)
Average temperature yesterday: 48 °F

High & Low Weather Summary for the Past Weeks

 TemperatureHumidityPressure
High88 °F (Sep 30, 1:00 pm)100% (Oct 2, 5:00 am)30.69 "Hg (Oct 2, 5:00 am)
Low39 °F (Oct 14, 6:30 am)13% (Oct 8, 3:30 pm)29.83 "Hg (Oct 2, 4:00 pm)
Average63 °F58%30.15 "Hg
* Reported Sep 30 8:00 am — Oct 15 8:30 am, Tianjin. Weather by CustomWeather, © 2019

Note: Actual official high and low records may vary slightly from our data, if they occured in-between our weather recording intervals... More about our weather records

Advertising

Tianjin Weather History for the Previous 24 Hours

Scroll right to see more
 ConditionsComfort  
Time TempWeatherWind HumidityBarometerVisibility
8:30 am
Tue, Oct 15
52 °FClear.3 mph54%30.60 "Hg5 mi
8:00 am50 °FClear.1 mph58%30.60 "Hg5 mi
7:30 am45 °FClear.No wind76%30.57 "Hg5 mi
7:00 am43 °FClear.No wind81%30.57 "Hg5 mi
6:30 am39 °FClear.1 mph81%30.57 "Hg5 mi
6:00 am39 °FClear.1 mph87%30.57 "Hg5 mi
5:30 am39 °FClear.No wind81%30.60 "Hg10 mi
5:00 am41 °FClear.No wind87%30.60 "Hg10 mi
4:30 am39 °FClear.No wind81%30.60 "Hg10 mi
4:00 am39 °FClear.No wind81%30.60 "Hg10 mi
3:30 am39 °FClear.No wind75%30.60 "Hg10 mi
3:00 am41 °FClear.No wind76%30.60 "Hg10 mi
2:30 am39 °FClear.1 mph87%30.60 "Hg10 mi
2:00 am41 °FClear.1 mph76%30.60 "Hg10 mi
1:30 am43 °FClear.1 mph71%30.63 "Hg10 mi
1:00 am43 °FClear.3 mph61%30.63 "Hg10 mi
12:30 am43 °FClear.1 mph76%30.63 "Hg10 mi
12:00 am43 °FClear.1 mph71%30.63 "Hg10 mi
11:30 pm
Mon, Oct 14
43 °FClear.1 mph76%30.63 "Hg10 mi
11:00 pm41 °FClear.1 mph76%30.63 "Hg10 mi
10:30 pm43 °FClear.1 mph71%30.63 "Hg10 mi
10:00 pm43 °FClear.1 mph71%30.63 "Hg10 mi
9:30 pm45 °FClear.1 mph57%30.63 "Hg10 mi
9:00 pm50 °FClear.1 mph43%30.63 "Hg10 mi
8:30 pm48 °FClear.1 mph50%30.63 "Hg10 mi
8:00 pm48 °FClear.1 mph46%30.60 "Hg10 mi
7:30 pm48 °FClear.3 mph50%30.60 "Hg10 mi
7:00 pm48 °FPassing clouds.3 mph46%30.60 "HgN/A
6:30 pm50 °FClear.1 mph43%30.60 "Hg10 mi
6:00 pm54 °FClear.1 mph24%30.60 "Hg10 mi
5:30 pm54 °FPassing clouds.3 mph26%30.60 "HgN/A
5:00 pm55 °FSunny.6 mph24%30.60 "Hg10 mi
4:30 pm57 °FPassing clouds.6 mph23%30.60 "HgN/A
4:00 pm57 °FPassing clouds.6 mph23%30.60 "HgN/A
3:30 pm57 °FPassing clouds.6 mph21%30.60 "HgN/A
3:00 pm57 °FPassing clouds.6 mph21%30.60 "HgN/A
2:30 pm57 °FPassing clouds.6 mph21%30.60 "HgN/A
2:00 pm59 °FPassing clouds.6 mph21%30.60 "HgN/A
1:30 pm57 °FPassing clouds.6 mph23%30.60 "HgN/A
1:00 pm57 °FSunny.1 mph23%30.63 "Hg10 mi
12:30 pm55 °FPassing clouds.6 mph24%30.63 "HgN/A
12:00 pm55 °FPassing clouds.6 mph24%30.66 "HgN/A
11:30 am54 °FSunny.8 mph26%30.66 "Hg10 mi
11:00 am54 °FPassing clouds.6 mph26%30.66 "HgN/A
10:30 am54 °FPassing clouds.8 mph26%30.69 "HgN/A
10:00 am52 °FPassing clouds.10 mph30%30.69 "HgN/A
9:30 am50 °FSunny.10 mph40%30.69 "Hg10 mi
9:00 am48 °FSunny.10 mph50%30.66 "Hg10 mi
Weather by CustomWeather, © 2019

See weather overview